Location: Lichtensteig
(47.3376°N, 9.0841°E)
Time: 14:31:21
(UTC+00:00)

FENGYUN 1C DEB - Pass Details

Date: 25 September 2021
Orbit: 837 x 877 km, 98.7° (Epoch: 18 October)

Event Time Altitude Azimuth Distance (km) Brightness Sun altitude
Rises 18:05:54 0° 175° (S) 3,452 ? -9.4°
Reaches altitude 10° 18:08:18 10° 179° (S) 2,521 ? -9.8°
Maximum altitude 18:13:51 60° 259° (W) 1,004 ? -10.7°
Drops below altitude 10° 18:19:27 10° 339° (NNW) 2,541 ? -11.7°
Sets 18:21:54 0° 343° (NNW) 3,482 ? -12.1°
